Location: Ergnies
(50.0854°N, 2.0375°E)
Time: 05:54:17
(UTC+00:00)

FengYun 1-2 T - Pass Details

Date: 14 January 2026
Orbit: 844 x 880 km, 98.8° (Epoch: 10 February)

Event Time Altitude Azimuth Distance (km) Brightness Sun altitude
Rises 05:29:39 0° 11° (N) 3,468 7.4 -21.1°
Reaches altitude 10° 05:32:08 10° 5° (N) 2,521 6.6 -20.7°
Maximum altitude 05:37:25 45° 295° (WNW) 1,162 4.5 -19.8°
Enters shadow 05:40:38 22° 234° (SW) 1,786 5.5 -19.3°
